Vorticity
14 14 12 5 7 14 -30 116 1 -5 6 7 7 -1 -6 21 3 5 11 1 0 5 4 6 6 4 6 6 6 -0 -1 4 7 0 8 10 -2 8 -1 7 11 11 9
26 17 14 9 10 4 -2 0 -70 74 82 10 4 -1 9 6 7 4 3 6 5 7 14 -11 3 9 6 4 1 6 7 6 8 6 16 14 14 21 14 -1 6 6 8
17 17 24 18 8 15 5 3 -9 -11 -0 18 -3 1 2 -0 3 2 2 11 5 2 4 4 2 6 6 1 4 3 -0 10 -1 11 2 9 14 6 5 4 7 2 1
29 15 18 14 17 16 16 5 5 10 -1 20 -47 25 -29 27 5 8 0 2 6 4 7 7 3 1 1 3 2 2 4 -2 5 4 -8 -5 -7 9 10 22 -4 1 4
22 -0 28 13 14 16 17 14 16 10 5 5 6 15 -28 -41 -3 -20 2 -1 -5 -5 -2 35 11 12 7 10 2 -2 2 8 4 -3 69 36 14 14 23 7 17 7 0
39 -21 25 15 25 14 17 15 16 15 15 15 27 26 16 10 18 -5 4 8 -5 -10 11 -18 -9 -21 -5 10 30 71 45 20 23 13 -62 -5 22 17 -3 -12 13 4 8
13 -1 28 8 -3 3 18 25 11 8 5 3 -1 4 14 22 34 22 6 -1 -26 -2 7 -6 -7 6 20 -3 -19 -32 -5 -3 7 12 10 4 -13 -3 3 17 31 -9 6
37 11 18 9 23 22 12 13 9 34 39 29 20 35 24 6 13 15 21 40 32 18 12 6 10 9 8 51 9 7 13 7 6 3 2 -2 -6 11 9 25 5 24 5
24 31 20 24 12 9 4 15 24 13 2 -10 5 -9 -18 -29 1 16 13 10 10 23 24 25 12 17 25 14 -1 -5 -3 10 -3 8 4 7 22 12 21 3 -3 1 14
21 24 27 29 32 28 14 9 14 12 25 16 17 36 56 22 18 37 -3 11 -6 4 -5 2 3 1 6 13 19 10 21 21 3 18 -1 26 48 -22 15 16 24 8 12
18 16 17 18 21 26 38 33 24 24 19 20 30 16 3 10 2 -5 -4 -22 19 22 4 24 7 -8 6 -1 24 7 6 -10 3 9 18 7 4 0 28 19 -1 -3 6
33 18 13 13 17 14 14 27 30 19 20 24 20 23 25 26 22 12 48 19 19 2 44 32 26 10 -2 11 26 17 8 8 8 6 11 31 9 -11 29 8 10 12 14
30 25 19 16 14 16 17 17 21 24 26 26 26 21 19 19 15 18 15 14 19 29 4 1 -1 36 -4 17 9 7 25 31 54 49 28 26 11 26 10 5 4 15 12
26 32 12 20 17 14 16 16 14 14 15 17 18 19 18 16 17 18 19 15 20 20 21 32 7 10 26 7 13 20 3 -1 2 10 18 11 1 3 6 16 7 5 10
24 34 22 11 11 7 8 10 8 8 10 12 11 14 18 18 16 16 17 14 13 15 12 11 14 22 23 22 10 11 12 7 10 9 -4 1 8 6 3 6 4 7 3
28 29 24 20 8 8 7 7 8 8 6 10 15 14 16 23 23 26 24 20 15 13 10 14 10 7 9 8 10 9 10 5 4 9 3 7 8 8 9 7 10 11 5
30 32 24 18 21 7 10 4 4 6 8 8 14 15 12 13 15 9 10 22 21 24 27 23 21 20 16 14 14 11 9 7 10 9 11 17 19 15 14 29 30 22 24
36 31 15 20 20 20 10 7 8 6 7 8 12 19 12 12 16 21 23 22 14 13 21 22 28 29 27 26 21 21 22 24 27 24 23 18 22 20 19 20 18 18 20
41 28 14 20 13 23 18 9 8 6 7 5 14 15 14 16 19 17 16 22 22 14 15 14 14 13 14 15 20 31 35 19 18 15 15 20 20 15 11 14 10 10 10
40 23 15 20 10 19 20 13 8 4 10 7 17 20 22 21 22 24 21 21 23 24 22 21 19 19 18 16 17 11 11 21 20 17 12 7 7 9 9 10 15 23 19
36 22 14 18 8 20 21 14 9 8 6 14 21 23 23 15 10 9 12 15 16 14 15 16 14 16 18 16 20 20 15 15 12 13 17 19 18 17 13 22 21 21 19
28 19 15 16 6 22 20 14 9 8 12 17 34 17 10 12 16 22 23 17 12 4 12 12 8 4 8 14 18 17 21 13 15 16 14 14 4 20 19 9 15 21 19
24 15 14 13 9 23 17 8 8 10 10 38 12 13 10 15 -2 12 13 16 10 12 13 8 24 18 18 29 33 22 20 23 8 14 5 7 23 7 1 13 23 27 21
22 14 14 11 13 22 12 8 6 9 31 19 10 8 21 14 3 8 16 15 7 23 24 23 18 29 41 36 37 17 18 33 15 18 17 22 4 4 9 18 23 22 13
20 14 13 10 15 20 9 4 10 14 32 9 4 10 12 12 7 12 22 18 15 26 15 29 38 38 36 36 29 27 21 21 9 -1 13 3 7 8 9 2 25 0 18
20 15 13 10 15 19 6 4 11 23 26 6 9 19 22 18 16 27 21 21 17 15 30 35 6 27 22 20 15 10 17 4 8 11 4 7 3 -2 -5 34 8 17 11
Height
5689 5696 5701 5707 5711 5720 5729 5718 5722 5732 5739 5744 5748 5752 5753 5757 5758 5760 5762 5764 5766 5769 5772 5774 5776 5776 5775 5776 5775 5774 5774 5772 5770 5773 5773 5771 5771 5770 5769 5766 5762 5758 5755
5677 5682 5687 5692 5698 5703 5711 5708 5700 5712 5711 5722 5730 5734 5737 5741 5744 5747 5747 5748 5748 5754 5757 5755 5761 5762 5763 5763 5761 5761 5758 5758 5759 5759 5760 5759 5756 5754 5752 5750 5748 5743 5741
5662 5667 5673 5677 5682 5687 5690 5694 5698 5702 5697 5704 5707 5716 5719 5721 5725 5728 5733 5735 5735 5737 5742 5744 5745 5745 5747 5747 5747 5745 5744 5744 5742 5742 5744 5744 5742 5740 5740 5737 5735 5731 5729
5649 5653 5657 5661 5665 5669 5673 5676 5677 5679 5681 5684 5687 5695 5698 5699 5704 5711 5715 5719 5721 5723 5724 5725 5728 5730 5730 5727 5733 5730 5730 5729 5727 5726 5728 5729 5727 5726 5725 5722 5719 5719 5718
5639 5639 5642 5646 5649 5652 5655 5658 5661 5664 5666 5669 5671 5674 5677 5680 5687 5691 5695 5700 5703 5705 5707 5709 5710 5711 5712 5712 5714 5713 5712 5713 5714 5712 5708 5707 5709 5711 5709 5706 5705 5704 5703
5630 5631 5627 5629 5631 5634 5637 5640 5642 5644 5647 5649 5653 5656 5657 5658 5662 5669 5673 5678 5683 5684 5689 5690 5691 5693 5694 5695 5692 5695 5693 5695 5696 5695 5692 5689 5693 5694 5693 5692 5690 5689 5688
5620 5618 5618 5618 5619 5616 5619 5622 5623 5625 5627 5630 5632 5635 5638 5639 5643 5649 5650 5656 5660 5663 5667 5670 5671 5672 5674 5679 5677 5674 5677 5677 5677 5678 5680 5678 5677 5678 5677 5675 5673 5671 5672
5605 5605 5604 5603 5603 5603 5606 5605 5607 5607 5607 5610 5614 5616 5618 5620 5622 5626 5631 5637 5642 5643 5645 5648 5650 5652 5654 5653 5656 5659 5660 5660 5659 5660 5660 5660 5660 5658 5657 5660 5658 5655 5655
5586 5585 5584 5585 5585 5584 5586 5587 5587 5590 5591 5592 5594 5595 5597 5597 5600 5604 5610 5613 5617 5622 5624 5626 5629 5631 5632 5636 5640 5641 5641 5640 5642 5643 5645 5644 5644 5642 5641 5641 5642 5639 5639
5573 5569 5566 5565 5564 5566 5565 5565 5567 5569 5570 5572 5574 5575 5574 5577 5578 5582 5586 5587 5594 5598 5602 5602 5604 5607 5611 5615 5619 5621 5623 5622 5622 5622 5624 5625 5625 5621 5622 5623 5622 5620 5620
5565 5558 5553 5550 5549 5548 5548 5548 5548 5549 5550 5551 5553 5553 5553 5553 5554 5557 5561 5566 5568 5573 5577 5580 5580 5585 5590 5595 5598 5599 5600 5601 5601 5602 5604 5606 5606 5606 5604 5605 5602 5603 5603
5557 5551 5547 5543 5539 5537 5535 5534 5532 5533 5534 5534 5534 5536 5535 5535 5535 5537 5538 5542 5547 5552 5557 5561 5562 5565 5569 5573 5575 5575 5577 5579 5579 5580 5581 5584 5584 5583 5584 5585 5586 5585 5585
5547 5541 5537 5533 5529 5526 5525 5523 5521 5519 5519 5520 5519 5519 5518 5517 5517 5517 5520 5523 5526 5532 5537 5541 5544 5545 5547 5552 5552 5552 5553 5556 5556 5558 5560 5562 5564 5565 5566 5567 5567 5567 5566
5538 5530 5525 5522 5518 5516 5514 5512 5511 5509 5508 5506 5505 5503 5503 5502 5499 5498 5500 5503 5506 5509 5513 5517 5521 5525 5527 5530 5531 5532 5534 5537 5538 5537 5539 5543 5546 5546 5547 5548 5548 5547 5548
5527 5519 5514 5511 5508 5506 5504 5502 5500 5497 5495 5494 5491 5489 5488 5488 5485 5483 5484 5484 5485 5487 5489 5494 5498 5502 5503 5505 5508 5510 5512 5515 5519 5518 5519 5523 5524 5526 5528 5528 5528 5529 5530
5517 5508 5503 5500 5497 5495 5493 5493 5490 5487 5484 5479 5475 5472 5471 5469 5468 5466 5465 5464 5464 5466 5469 5472 5474 5476 5479 5481 5484 5487 5488 5490 5493 5496 5497 5502 5503 5503 5505 5508 5509 5508 5509
5506 5497 5492 5488 5486 5484 5483 5481 5480 5479 5474 5470 5465 5460 5456 5454 5452 5450 5449 5448 5448 5447 5449 5450 5451 5453 5457 5460 5463 5466 5468 5469 5472 5476 5480 5482 5483 5484 5487 5489 5489 5490 5490
5496 5488 5482 5478 5475 5473 5472 5470 5468 5466 5464 5460 5454 5448 5444 5440 5437 5433 5431 5431 5432 5431 5433 5434 5435 5436 5437 5440 5443 5446 5448 5450 5455 5459 5463 5466 5467 5470 5471 5473 5473 5474 5473
5487 5480 5474 5470 5466 5463 5461 5460 5458 5456 5452 5447 5441 5436 5430 5426 5423 5421 5419 5418 5418 5418 5418 5419 5420 5422 5425 5427 5428 5430 5431 5434 5439 5443 5448 5452 5453 5455 5458 5457 5459 5459 5459
5479 5471 5466 5462 5458 5455 5452 5450 5449 5446 5442 5437 5430 5424 5420 5417 5413 5410 5408 5406 5405 5404 5405 5406 5407 5408 5410 5412 5414 5417 5420 5423 5428 5433 5437 5440 5440 5441 5444 5445 5447 5447 5446
5471 5464 5459 5455 5450 5446 5443 5442 5440 5437 5432 5426 5420 5414 5411 5408 5406 5403 5400 5397 5396 5395 5394 5394 5394 5394 5395 5397 5400 5403 5407 5413 5418 5421 5425 5428 5431 5433 5435 5435 5435 5434 5434
5463 5457 5452 5448 5444 5439 5436 5434 5432 5428 5423 5417 5412 5408 5405 5402 5399 5395 5392 5389 5388 5387 5385 5384 5383 5383 5383 5385 5387 5391 5395 5402 5408 5413 5417 5419 5422 5425 5426 5426 5425 5424 5425
5456 5451 5446 5442 5437 5433 5430 5427 5424 5420 5414 5408 5405 5402 5398 5395 5392 5389 5385 5382 5380 5378 5375 5373 5371 5369 5369 5370 5375 5381 5387 5393 5400 5405 5409 5413 5415 5418 5419 5419 5417 5417 5419
5450 5445 5440 5436 5432 5427 5424 5421 5418 5412 5406 5403 5400 5396 5393 5390 5386 5382 5378 5375 5372 5368 5365 5362 5359 5357 5356 5359 5364 5372 5380 5386 5392 5398 5403 5407 5410 5413 5413 5413 5412 5412 5414
5444 5439 5435 5430 5426 5422 5419 5415 5411 5405 5400 5398 5395 5391 5387 5383 5379 5376 5371 5367 5364 5360 5357 5353 5350 5350 5351 5354 5360 5368 5376 5383 5389 5394 5399 5404 5407 5408 5408 5409 5408 5408 5409
5438 5433 5429 5425 5421 5417 5414 5410 5405 5400 5396 5393 5389 5384 5379 5376 5373 5370 5366 5363 5360 5356 5352 5349 5350 5351 5353 5357 5363 5369 5376 5381 5387 5392 5397 5400 5402 5403 5403 5403 5403 5404 5406